Skip Page Navigation
NASA JPL Caltech
NASA Logo - Jet Propulsion Laboratory + View the NASA Portal
+ Center for Near-Earth Object Studies
JPL Home Earth Solar System Stars & Galaxies Technology
JPL Solar System Dynamics
BODIES ORBITS EPHEMERIDES TOOLS PHYSICAL DATA DISCOVERY FAQ SITE MAP
IMPORTANT: The SSD Announcement email list is now available. Major changes are coming in the near future, including possible hostname and/or URL changes. To be notified of such changes, subscribe to this email list.

Please visit this page for more details.


JPL Small-Body Database Browser
Search: [ help ]  
295298 (2008 GP111)
Classification: Main-belt Asteroid          SPK-ID: 2295298
Ephemeris | Orbit Diagram | Orbital Elements | Mission Design | Physical Parameters | Discovery Circumstances ]

[ show orbit diagram ]
Orbital Elements at Epoch 2458600.5 (2019-Apr-27.0) TDB
Reference: JPL 15 (heliocentric ecliptic J2000)
 Element Value Uncertainty (1-sigma)   Units 
e .1656219775271707 3.918e-08  
a 2.40902073688468 2.2534e-08 au
q 2.010033958537877 9.6514e-08 au
i 9.21408936420417 4.4761e-06 deg
node 231.352238875095 4.516e-05 deg
peri .4555214109270341 5.0416e-05 deg
M 324.6436211111469 2.3333e-05 deg
tp 2458734.629564043129
(2019-Sep-08.12956404)
8.8495e-05 TDB
period 1365.712343091503
3.74
1.9163e-05
5.247e-08
d
yr
n .2635987013085667 3.6986e-09 deg/d
Q 2.808007515231482 2.6267e-08 au
  Orbit Determination Parameters
   # obs. used (total)      322  
   data-arc span      6013 days (16.46 yr)  
   first obs. used      2002-11-13  
   last obs. used      2019-05-01  
   planetary ephem.      DE431  
   SB-pert. ephem.      SB431-N16  
   condition code      0  
   norm. resid. RMS      .57296  
   source      ORB  
   producer      Otto Matic  
   solution date      2019-Jul-14 10:31:53  

Additional Information
 Earth MOID = .999342 au 
 Jupiter MOID = 2.18989 au 
 T_jup = 3.485 
[ show covariance matrix ]

Ephemeris | Orbit Diagram | Orbital Elements | Mission Design | Physical Parameters | Discovery Circumstances ]

Physical Parameter Table
Parameter Symbol Value Units Sigma Reference Notes
absolute magnitude H 16.3   n/a MPO433903  

295298 (2008 GP111)          Discovered 2008-Apr-08 by LINEAR at Socorro
Reference: 20110912/Numbers.arcLast Updated: 2011-09-14

Alternate Designations
 2008 GP111 = 2004 FB124 
Ephemeris | Orbit Diagram | Orbital Elements | Mission Design | Physical Parameters | Discovery Circumstances ]
ABOUT SSD CREDITS/AWARDS PRIVACY/COPYRIGHT GLOSSARY LINKS
FirstGov
(server date/time)  
NASA Home Page
Site Manager:   Ryan S. Park
Webmaster  Alan B. Chamberlin